• In Deutschland
  • Länderverzeichnis
  • Für 7 Tage
  • Wassertemperatur
  • Satellitenkarten
  • Wetterkarte
  • Widgets
  • user-avatar
    Anmelden

    Stündliche Wetter Canillo

    Heute, 20 August, Sonntag

    Zeit Temperatur Niederschläge Wind Luftdruck Luftfeuchtigkeit
    00:00 +10°C° 0 mm 1 m/S 624 mmHg 89%
    01:00 +10°C° 0 mm 1 m/S 623 mmHg 89%
    02:00 +9°C° 0 mm 2 m/S 623 mmHg 89%
    03:00 +8°C° 0 mm 2 m/S 623 mmHg 89%
    04:00 +8°C° 0 mm 2 m/S 623 mmHg 87%
    05:00 +8°C° 0 mm 2 m/S 623 mmHg 86%
    06:00 +8°C° 0 mm 2 m/S 624 mmHg 84%
    07:00 +12°C° 0 mm 2 m/S 625 mmHg 73%
    08:00 +14°C° 0 mm 2 m/S 626 mmHg 61%
    09:00 +16°C° 0 mm 2 m/S 627 mmHg 50%
    10:00 +18°C° 0 mm 2 m/S 627 mmHg 45%
    11:00 +19°C° 0 mm 2 m/S 627 mmHg 40%
    12:00 +20°C° 0 mm 2 m/S 628 mmHg 35%
    13:00 +21°C° 0 mm 2 m/S 627 mmHg 35%
    14:00 +21°C° 0 mm 2 m/S 627 mmHg 35%
    15:00 +21°C° 0 mm 2 m/S 627 mmHg 35%
    16:00 +19°C° 0 mm 2 m/S 626 mmHg 40%
    17:00 +18°C° 0 mm 2 m/S 626 mmHg 46%
    18:00 +16°C° 0 mm 2 m/S 625 mmHg 52%
    19:00 +14°C° 0 mm 2 m/S 625 mmHg 55%
    20:00 +13°C° 0 mm 2 m/S 624 mmHg 59%
    21:00 +10°C° 0 mm 2 m/S 624 mmHg 63%
    22:00 +10°C° 0 mm 2 m/S 624 mmHg 61%
    23:00 +9°C° 0 mm 2 m/S 624 mmHg 58%

    Morgen, 21 August, Montag

    Zeit Temperatur Niederschläge Wind Luftdruck Luftfeuchtigkeit
    00:00 +10°C° 0 mm 1 m/S 623 mmHg 56%
    01:00 +10°C° 0 mm 1 m/S 623 mmHg 53%
    02:00 +10°C° 0 mm 1 m/S 623 mmHg 51%
    03:00 +10°C° 0 mm 1 m/S 623 mmHg 48%
    04:00 +10°C° 0 mm 1 m/S 623 mmHg 47%
    05:00 +11°C° 0 mm 1 m/S 623 mmHg 47%
    06:00 +11°C° 0 mm 1 m/S 623 mmHg 46%
    07:00 +14°C° 0 mm 1 m/S 624 mmHg 41%
    08:00 +18°C° 0 mm 1 m/S 626 mmHg 37%
    09:00 +21°C° 0 mm 1 m/S 627 mmHg 32%
    10:00 +23°C° 0 mm 1 m/S 627 mmHg 31%
    11:00 +24°C° 0 mm 1 m/S 627 mmHg 29%
    12:00 +25°C° 0 mm 1 m/S 627 mmHg 28%
    13:00 +25°C° 0 mm 2 m/S 627 mmHg 29%
    14:00 +25°C° 0 mm 2 m/S 627 mmHg 30%
    15:00 +25°C° 0 mm 2 m/S 626 mmHg 31%
    16:00 +23°C° 0 mm 2 m/S 626 mmHg 38%
    17:00 +21°C° 0 mm 2 m/S 625 mmHg 45%
    18:00 +20°C° 0 mm 1 m/S 624 mmHg 53%
    19:00 +18°C° 0 mm 1 m/S 624 mmHg 60%
    20:00 +16°C° 0 mm 1 m/S 623 mmHg 67%
    21:00 +14°C° 0 mm 1 m/S 623 mmHg 73%
    22:00 +14°C° 0 mm 1 m/S 623 mmHg 76%
    23:00 +13°C° 0 mm 1 m/S 623 mmHg 78%

    übermorgen, 22 August, Dienstag

    Zeit Temperatur Niederschläge Wind Luftdruck Luftfeuchtigkeit
    00:00 +13°C° 0 mm 1 m/S 622 mmHg 80%
    01:00 +13°C° 0 mm 1 m/S 622 mmHg 80%
    02:00 +13°C° 0 mm 1 m/S 622 mmHg 81%
    03:00 +13°C° 0 mm 1 m/S 622 mmHg 81%
    04:00 +13°C° 0 mm 1 m/S 622 mmHg 79%
    05:00 +13°C° 0 mm 1 m/S 622 mmHg 78%
    06:00 +14°C° 0 mm 1 m/S 622 mmHg 76%
    07:00 +18°C° 0 mm 1 m/S 623 mmHg 65%
    08:00 +20°C° 0 mm 2 m/S 624 mmHg 54%
    09:00 +24°C° 0 mm 2 m/S 626 mmHg 44%
    10:00 +25°C° 0 mm 2 m/S 626 mmHg 41%
    11:00 +26°C° 0 mm 2 m/S 626 mmHg 38%
    12:00 +27°C° 0 mm 2 m/S 626 mmHg 35%
    13:00 +26°C° 0,2 mm 2 m/S 626 mmHg 38%
    14:00 +26°C° 0,2 mm 2 m/S 625 mmHg 41%
    15:00 +25°C° 0,2 mm 2 m/S 625 mmHg 45%
    16:00 +24°C° 0,3 mm 2 m/S 625 mmHg 50%
    17:00 +22°C° 0,3 mm 1 m/S 624 mmHg 56%
    18:00 +21°C° 0,3 mm 1 m/S 624 mmHg 62%
    19:00 +19°C° 0,2 mm 1 m/S 623 mmHg 67%
    20:00 +18°C° 0,2 mm 1 m/S 623 mmHg 73%
    21:00 +15°C° 0,2 mm 1 m/S 623 mmHg 78%
    22:00 +15°C° 0,1 mm 1 m/S 623 mmHg 80%
    23:00 +14°C° 0,1 mm 1 m/S 623 mmHg 81%

    23 August, Mittwoch

    Zeit Temperatur Niederschläge Wind Luftdruck Luftfeuchtigkeit
    00:00 +13°C° 0,1 mm 0 m/S 623 mmHg 82%
    01:00 +13°C° 0,1 mm 0 m/S 622 mmHg 83%
    02:00 +12°C° 0,1 mm 0 m/S 622 mmHg 83%
    03:00 +12°C° 0,1 mm 0 m/S 622 mmHg 83%
    04:00 +12°C° 0,2 mm 0 m/S 622 mmHg 83%
    05:00 +13°C° 0,2 mm 1 m/S 622 mmHg 82%
    06:00 +14°C° 0,2 mm 1 m/S 622 mmHg 81%
    07:00 +16°C° 0,2 mm 1 m/S 623 mmHg 73%
    08:00 +18°C° 0,2 mm 2 m/S 624 mmHg 65%
    09:00 +20°C° 0,2 mm 2 m/S 625 mmHg 57%
    10:00 +21°C° 0,3 mm 2 m/S 626 mmHg 53%
    11:00 +23°C° 0,3 mm 2 m/S 626 mmHg 49%
    12:00 +24°C° 0,3 mm 3 m/S 626 mmHg 45%
    13:00 +24°C° 0,2 mm 3 m/S 626 mmHg 45%
    14:00 +24°C° 0,2 mm 3 m/S 626 mmHg 45%
    15:00 +25°C° 0,2 mm 3 m/S 625 mmHg 45%
    16:00 +23°C° 0,2 mm 2 m/S 625 mmHg 51%
    17:00 +21°C° 0,2 mm 2 m/S 624 mmHg 57%
    18:00 +20°C° 0,2 mm 1 m/S 624 mmHg 64%
    19:00 +19°C° 0,2 mm 1 m/S 623 mmHg 69%
    20:00 +16°C° 0,2 mm 1 m/S 623 mmHg 74%
    21:00 +14°C° 0,2 mm 1 m/S 623 mmHg 79%
    22:00 +14°C° 0 mm 1 m/S 622 mmHg 79%
    23:00 +14°C° 0 mm 1 m/S 622 mmHg 79%

    24 August, Donnerstag

    Zeit Temperatur Niederschläge Wind Luftdruck Luftfeuchtigkeit
    00:00 +14°C° 0 mm 1 m/S 622 mmHg 78%
    01:00 +13°C° 0 mm 1 m/S 622 mmHg 77%
    02:00 +13°C° 0 mm 1 m/S 622 mmHg 77%
    03:00 +13°C° 0 mm 1 m/S 621 mmHg 76%
    04:00 +13°C° 0 mm 1 m/S 622 mmHg 75%
    05:00 +13°C° 0 mm 1 m/S 622 mmHg 73%
    06:00 +13°C° 0 mm 1 m/S 622 mmHg 72%
    07:00 +16°C° 0 mm 1 m/S 623 mmHg 63%
    08:00 +18°C° 0 mm 2 m/S 624 mmHg 55%
    09:00 +21°C° 0 mm 2 m/S 625 mmHg 46%
    10:00 +22°C° 0 mm 3 m/S 626 mmHg 43%
    11:00 +24°C° 0 mm 3 m/S 626 mmHg 40%
    12:00 +25°C° 0 mm 3 m/S 626 mmHg 37%
    13:00 +25°C° 0 mm 4 m/S 626 mmHg 37%
    14:00 +25°C° 0 mm 4 m/S 626 mmHg 37%
    15:00 +25°C° 0 mm 4 m/S 625 mmHg 37%
    16:00 +24°C° 0 mm 3 m/S 625 mmHg 43%
    17:00 +21°C° 0 mm 3 m/S 624 mmHg 49%
    18:00 +19°C° 0 mm 2 m/S 623 mmHg 55%
    19:00 +18°C° 0 mm 2 m/S 623 mmHg 59%
    20:00 +16°C° 0 mm 2 m/S 623 mmHg 64%
    21:00 +14°C° 0 mm 2 m/S 622 mmHg 68%
    22:00 +14°C° 0 mm 2 m/S 622 mmHg 66%
    23:00 +14°C° 0 mm 2 m/S 622 mmHg 64%

    25 August, Freitag

    Zeit Temperatur Niederschläge Wind Luftdruck Luftfeuchtigkeit
    00:00 +14°C° 0 mm 1 m/S 622 mmHg 62%
    01:00 +13°C° 0 mm 2 m/S 622 mmHg 60%
    02:00 +13°C° 0 mm 2 m/S 622 mmHg 58%
    03:00 +13°C° 0 mm 2 m/S 621 mmHg 56%
    04:00 +13°C° 0 mm 2 m/S 621 mmHg 57%
    05:00 +13°C° 0 mm 2 m/S 621 mmHg 58%
    06:00 +13°C° 0 mm 2 m/S 622 mmHg 59%
    07:00 +16°C° 0 mm 2 m/S 623 mmHg 51%
    08:00 +19°C° 0 mm 2 m/S 624 mmHg 44%
    09:00 +21°C° 0 mm 3 m/S 625 mmHg 36%
    10:00 +22°C° 0 mm 3 m/S 625 mmHg 34%
    11:00 +25°C° 0 mm 3 m/S 626 mmHg 31%
    12:00 +26°C° 0 mm 4 m/S 626 mmHg 28%
    13:00 +26°C° 0 mm 4 m/S 626 mmHg 29%
    14:00 +26°C° 0 mm 4 m/S 625 mmHg 29%
    15:00 +26°C° 0 mm 4 m/S 625 mmHg 30%
    16:00 +24°C° 0 mm 3 m/S 624 mmHg 36%
    17:00 +21°C° 0 mm 3 m/S 624 mmHg 43%
    18:00 +19°C° 0 mm 3 m/S 623 mmHg 49%
    19:00 +18°C° 0 mm 2 m/S 623 mmHg 53%
    20:00 +16°C° 0 mm 2 m/S 622 mmHg 57%
    21:00 +14°C° 0 mm 2 m/S 622 mmHg 61%
    22:00 +14°C° 0 mm 2 m/S 622 mmHg 57%
    23:00 +14°C° 0 mm 2 m/S 621 mmHg 54%
    Mehr zeigen